GFSSGP_sfc_thetae_117.txt.gz
Theta_e
317 312 309 306 294 292 288 294 297 297 298 302 304 304 301 302 305 310 331 342 350 347 349 350 350 352 354 354 353 352 354 355 355 355 355 355 355 355 354 354 354 356 358 357 355 355 354 355 354
316 316 310 301 291 286 290 300 295 299 303 305 306 305 303 308 316 319 326 340 350 348 347 349 350 351 353 353 353 352 354 355 355 355 355 354 354 354 354 353 354 356 358 358 354 354 355 355 353
315 316 301 295 291 288 291 298 298 301 304 304 303 306 307 311 317 320 333 341 347 347 347 349 348 349 351 352 353 352 353 353 353 354 355 354 354 355 354 352 352 354 358 358 356 355 355 352 350
309 304 300 292 291 296 298 303 301 302 303 305 302 302 311 319 318 324 338 343 342 347 349 346 346 348 350 352 352 352 352 350 351 352 354 355 355 355 353 351 352 355 357 357 356 355 353 349 346
308 300 292 290 293 298 303 305 303 303 305 306 304 303 307 315 324 326 338 346 344 348 346 346 344 347 350 352 352 351 350 349 350 351 352 353 354 354 352 350 351 354 355 355 354 353 349 345 344
298 299 289 288 294 300 303 305 305 305 306 306 303 305 307 315 316 320 340 343 348 348 347 346 347 347 348 350 350 349 349 348 348 350 351 352 351 351 351 350 350 352 352 351 352 350 348 345 344
294 292 289 292 295 298 303 307 305 304 304 305 308 303 308 312 314 315 338 343 346 350 346 345 346 347 346 345 346 345 347 347 347 348 349 350 349 348 349 349 350 351 350 349 350 348 348 345 343
297 294 290 291 293 295 304 306 305 304 302 313 308 303 303 310 314 314 320 342 344 348 348 344 344 343 342 343 343 344 345 345 346 347 346 346 347 348 348 347 348 349 349 348 348 346 345 344 342
297 289 288 290 294 298 305 300 304 306 305 307 308 307 311 314 313 311 310 331 342 345 349 347 344 343 342 341 343 344 345 345 345 346 345 343 347 347 347 346 345 347 345 345 346 345 343 341 341
293 289 291 298 300 301 303 299 301 301 301 304 306 310 312 312 309 308 308 309 339 340 344 347 345 344 344 346 342 341 343 343 344 346 346 346 345 345 347 344 343 344 343 343 343 343 341 340 339
295 293 298 301 304 303 299 300 302 300 299 302 302 305 307 307 305 306 308 308 308 336 344 346 347 347 345 344 342 342 340 339 341 343 344 345 346 345 344 344 343 342 342 342 342 341 340 339 338
294 299 300 301 303 302 301 300 299 299 301 304 303 305 305 304 304 305 306 308 307 312 344 345 345 345 346 348 343 342 342 340 340 341 343 343 340 341 343 342 341 341 342 340 340 340 339 338 338
297 299 301 302 302 300 301 298 299 300 301 303 304 304 303 303 301 303 304 306 308 308 341 343 343 342 343 343 345 346 342 342 341 341 342 343 339 339 339 340 341 342 341 340 338 339 339 338 337
300 300 300 301 301 302 300 300 299 301 302 302 303 302 302 302 302 301 303 304 306 310 320 319 336 343 342 339 341 340 342 343 343 343 343 343 342 339 340 339 339 341 341 341 339 338 338 338 337
300 294 297 297 298 298 301 297 298 303 303 303 303 302 302 304 303 303 304 303 308 316 319 319 320 322 323 334 338 340 340 342 342 341 343 344 344 340 338 338 337 340 342 340 340 336 334 334 336
294 294 289 296 299 301 297 292 298 302 301 300 301 302 302 303 304 303 303 309 312 314 317 319 322 322 322 322 324 335 339 339 339 342 343 342 345 342 339 338 338 336 341 340 339 337 334 333 333
291 285 289 293 300 300 297 295 301 302 301 299 299 297 300 301 302 303 310 311 314 314 315 316 318 318 319 320 322 323 324 325 336 339 342 342 340 343 341 338 337 337 336 339 338 336 333 330 331
286 287 289 290 294 297 295 294 298 300 299 299 298 299 300 299 304 312 313 313 313 313 313 314 316 315 316 317 318 320 320 319 325 335 336 339 341 339 341 340 339 336 335 335 336 336 332 331 331
293 291 290 293 297 295 293 294 296 298 297 296 296 297 298 305 310 312 311 310 310 310 310 310 310 311 312 311 311 312 313 316 319 322 325 328 339 339 338 338 337 337 336 335 333 331 332 328 331
293 290 289 293 296 295 293 292 294 297 297 297 296 296 298 306 308 308 308 307 307 307 307 308 308 308 309 308 309 310 311 314 316 320 321 323 325 333 337 338 337 338 335 332 333 330 325 329 332
292 290 290 289 293 294 291 289 291 296 299 299 300 300 300 307 305 306 306 303 304 304 304 305 305 305 306 306 306 307 308 309 310 312 314 316 319 323 331 337 337 337 336 333 332 331 329 328 327
288 295 295 293 289 283 290 281 290 294 295 298 299 302 303 304 303 303 302 301 301 301 303 303 304 303 304 303 302 301 301 302 304 306 307 309 312 315 320 325 334 336 336 334 332 334 333 331 327
291 297 292 291 289 288 287 281 287 292 291 296 300 301 302 302 301 300 300 300 300 300 299 299 300 300 299 299 299 298 298 300 302 303 303 305 308 310 313 318 323 332 333 333 332 330 332 331 328
298 293 290 288 286 280 286 284 284 287 293 298 301 301 300 300 299 299 300 299 298 298 297 297 297 296 296 296 296 295 294 295 296 297 298 300 304 307 310 314 319 326 332 333 331 330 330 333 332
293 286 279 276 277 277 288 285 286 295 298 299 297 297 298 298 297 297 296 296 296 294 294 295 294 293 293 293 293 294 294 294 295 296 297 298 299 302 305 309 313 320 328 332 333 330 330 331 331
290 286 279 275 275 278 287 281 286 296 297 297 297 297 296 295 296 295 294 294 293 293 291 290 290 290 291 290 290 292 292 293 293 294 295 297 299 300 302 305 308 312 316 329 331 331 331 331 331
289 284 290 283 283 279 281 287 291 294 294 295 294 295 295 295 295 294 294 293 291 290 290 289 289 288 289 288 288 288 290 291 291 293 295 295 297 300 301 303 305 309 314 322 329 328 328 331 332
290 291 283 282 276 275 279 282 285 290 291 293 292 292 292 292 292 293 292 291 290 290 289 289 288 287 287 287 287 288 289 290 292 292 293 295 297 299 301 301 303 306 312 319 327 324 328 328 331
286 284 285 286 282 276 275 279 293 292 292 292 292 292 291 290 290 290 291 290 289 289 288 287 287 287 286 286 287 287 289 290 291 291 293 295 296 298 300 303 305 306 308 315 326 325 326 326 328
289 287 287 278 277 279 278 278 296 296 296 295 292 292 290 290 289 289 288 288 287 286 286 286 286 285 286 286 287 288 289 289 289 290 291 294 294 296 299 304 308 308 309 314 325 327 327 326 327

GFSSGP_sfc_thetae_120.txt.gz
Theta_e
318 310 307 304 293 290 287 292 296 295 296 300 302 302 300 302 307 310 331 346 346 346 349 351 350 352 352 352 352 353 354 354 354 354 353 353 354 354 354 354 355 357 358 357 356 355 354 354 352
315 313 306 298 289 285 288 294 296 296 301 303 304 303 302 308 318 323 327 346 346 347 348 349 350 351 352 351 351 352 354 354 354 354 353 353 353 353 353 353 353 355 357 356 355 354 354 354 351
314 313 299 293 287 286 289 294 297 300 302 302 301 304 307 310 316 323 332 346 346 346 348 348 349 349 351 352 350 351 353 352 353 353 354 353 354 354 354 352 352 356 358 356 354 356 355 351 348
308 301 297 291 288 293 293 299 302 299 301 303 300 301 310 316 320 328 341 346 345 344 347 346 346 348 351 351 351 351 351 350 350 352 353 353 354 354 353 351 352 355 358 358 356 355 352 348 346
305 297 291 287 290 294 299 302 300 299 302 303 302 302 309 319 325 336 342 345 344 343 346 345 343 347 350 351 352 350 349 349 349 350 351 352 353 353 351 350 351 353 356 355 354 352 349 345 344
297 295 288 286 290 296 300 302 303 303 303 304 302 303 306 314 316 333 340 344 347 344 344 345 346 347 347 349 349 347 347 347 348 349 350 351 351 350 349 349 349 351 351 350 350 349 346 344 344
293 291 287 288 291 294 299 304 303 302 303 304 307 302 307 310 312 333 338 344 345 345 343 344 345 347 345 344 344 344 345 346 346 347 347 348 347 347 348 348 349 350 349 348 348 347 346 344 343
295 292 286 288 290 293 300 303 302 302 300 310 306 302 301 309 313 320 338 341 346 343 343 342 342 344 344 344 343 343 344 343 344 345 345 345 345 346 346 346 347 348 348 348 348 346 345 343 341
295 288 285 288 291 294 302 298 302 304 301 303 306 305 309 313 312 308 324 337 341 345 341 341 341 341 342 342 345 344 345 344 343 345 344 342 346 346 346 344 344 346 344 345 345 344 342 341 340
291 286 289 295 296 297 300 296 298 298 299 301 302 308 309 308 306 305 305 310 337 340 343 341 340 340 340 343 342 342 345 344 345 346 344 347 343 344 346 344 341 343 342 342 342 342 340 339 338
291 289 293 297 300 300 299 299 301 298 296 300 301 303 305 305 304 304 305 304 317 337 341 345 341 340 339 340 339 338 340 340 342 344 345 344 344 343 343 343 343 342 342 342 341 341 340 338 336
291 296 296 298 300 298 297 299 299 297 300 303 303 303 302 303 303 303 303 304 304 304 322 344 343 343 341 341 338 339 338 338 339 342 343 343 343 341 341 342 341 340 341 339 340 340 339 338 337
295 296 298 300 300 299 300 297 297 298 302 301 301 302 301 301 301 303 303 303 303 314 327 337 340 339 342 342 340 339 338 339 338 338 342 343 342 341 342 341 340 340 340 340 338 338 338 338 337
298 298 297 298 298 299 298 298 297 300 302 302 301 300 301 301 300 300 302 302 311 313 317 325 325 328 338 338 339 340 340 338 339 339 340 343 341 341 340 340 340 340 340 340 339 338 337 337 337
298 293 295 295 296 296 299 294 296 301 301 301 302 302 301 303 301 301 301 310 314 315 318 320 321 321 321 328 330 333 337 340 339 341 341 341 342 339 340 339 338 340 340 339 338 337 337 336 336
293 292 286 295 297 298 295 291 298 301 299 300 301 300 300 300 302 299 310 311 311 313 315 317 319 317 317 318 321 323 326 331 331 335 339 342 342 341 338 338 338 338 340 339 338 336 334 334 334
289 284 286 290 297 295 293 292 296 300 299 298 297 297 298 298 302 308 310 310 311 311 311 311 311 311 312 313 315 317 318 319 322 326 334 339 334 338 338 337 337 335 338 338 338 337 335 332 331
284 285 284 286 291 294 292 292 297 297 297 297 296 296 298 299 307 310 309 308 307 307 308 308 308 309 309 309 310 311 312 313 317 320 326 329 334 333 338 339 339 334 334 336 337 336 335 332 331
290 288 288 290 294 292 291 291 294 295 293 293 295 295 297 306 309 307 307 306 306 306 305 306 305 306 305 305 305 306 305 308 311 315 318 319 323 327 328 336 337 336 334 334 334 335 329 328 329
290 288 288 292 295 293 290 288 291 293 294 295 296 296 303 306 304 305 304 303 303 303 303 303 303 302 302 303 303 303 303 307 308 310 308 313 311 314 319 321 327 335 335 334 331 332 328 331 329
290 289 289 289 292 291 289 288 290 295 297 298 299 299 305 304 302 301 300 299 300 299 300 300 300 299 299 300 300 300 301 302 303 302 304 305 307 310 313 316 321 325 333 333 333 332 330 327 327
287 292 292 291 286 281 289 281 288 293 293 295 299 300 301 300 300 299 297 297 297 297 297 298 298 297 297 297 296 295 295 295 297 299 301 301 303 304 308 311 313 317 321 329 331 332 330 330 325
291 296 293 290 285 283 286 281 286 291 290 294 296 297 297 297 297 297 297 296 295 295 294 295 295 294 294 294 294 293 292 293 295 296 296 297 300 302 304 307 310 312 315 321 329 328 329 328 325
297 293 289 286 284 278 284 283 282 287 292 294 296 296 296 295 296 296 297 295 293 293 293 292 292 291 292 291 291 291 290 291 291 292 293 295 297 298 301 303 305 309 312 317 325 329 328 325 324
292 287 280 276 276 276 286 282 284 292 293 293 292 293 295 295 294 294 293 292 292 291 289 290 289 289 289 289 288 288 289 289 290 292 293 294 294 296 297 299 300 302 306 312 315 323 328 327 326
290 288 280 274 275 276 285 278 284 293 293 295 295 294 295 294 294 293 292 291 290 289 288 287 287 287 287 287 286 287 288 288 289 291 292 293 294 295 296 297 299 301 302 305 309 313 326 328 327
288 282 288 283 281 278 279 284 291 294 292 291 292 292 292 293 293 291 290 289 289 288 287 287 286 286 286 286 286 286 287 288 289 290 292 293 294 295 297 299 299 300 301 303 307 310 314 327 327
289 290 280 282 276 274 278 279 281 289 288 292 290 290 291 292 291 290 289 288 288 287 286 286 286 286 286 286 286 287 287 289 289 290 290 292 293 294 296 296 298 299 302 302 304 307 313 323 326
284 282 283 286 283 275 274 276 290 291 292 291 291 291 289 288 287 287 287 287 286 285 285 285 285 285 285 286 286 287 287 288 289 289 290 291 292 293 293 294 296 298 300 303 305 306 309 316 324
287 284 286 279 277 279 276 277 294 293 294 293 288 288 287 286 285 285 285 284 284 283 284 283 284 284 286 286 287 286 287 287 287 287 288 289 289 291 292 293 295 298 300 304 306 306 309 313 321

GFSSGP_sfc_thetae_123.txt.gz
Theta_e
318 310 306 302 293 289 286 290 293 295 296 298 300 300 299 303 307 300 330 343 345 345 349 350 350 352 352 352 352 352 353 354 354 354 354 354 355 355 355 355 356 357 358 356 355 354 354 352 351
316 311 304 296 289 285 288 292 293 294 299 301 301 301 304 311 319 323 328 344 345 346 348 350 349 350 351 351 351 352 354 354 353 353 353 354 354 354 355 354 354 356 357 356 354 354 353 352 350
311 309 298 291 286 286 287 293 297 302 301 299 299 302 308 309 318 324 330 345 346 345 348 348 349 349 350 350 351 351 352 352 352 352 353 353 354 354 354 353 353 356 357 355 354 352 354 350 347
307 301 296 290 287 291 293 298 299 299 300 300 298 301 310 318 319 331 338 346 343 344 346 345 346 348 350 350 350 350 350 349 350 351 352 353 353 353 352 351 353 356 356 355 355 356 351 347 345
301 296 290 287 287 292 296 300 300 298 301 303 301 300 308 317 328 339 340 345 342 341 344 345 344 347 349 351 350 349 349 348 349 350 350 351 353 352 351 350 352 354 355 355 354 352 349 346 345
296 294 287 286 288 294 298 300 301 301 302 304 302 302 305 313 318 333 341 342 343 341 343 345 346 347 347 349 348 347 346 347 347 348 349 350 350 350 349 349 350 352 352 351 350 348 346 345 344
293 290 287 286 290 292 297 301 299 299 300 302 305 301 305 308 311 333 339 342 342 342 341 342 344 347 345 344 344 344 344 345 346 346 347 348 347 346 348 348 348 350 349 348 348 347 344 343 342
294 291 287 286 289 290 298 301 300 299 298 306 304 300 300 307 311 323 336 339 338 340 340 340 340 342 342 344 342 343 343 343 344 345 345 344 344 345 346 345 346 348 348 347 347 346 344 343 341
293 287 284 287 289 293 299 296 300 302 299 301 303 302 306 310 310 315 328 334 336 340 338 338 338 339 340 341 343 343 344 343 342 344 343 341 344 344 344 343 343 345 344 344 345 344 342 340 339
290 285 287 292 294 295 297 294 298 298 298 300 300 304 307 306 304 304 310 329 333 337 338 337 337 337 338 343 341 341 343 344 343 343 342 344 342 342 344 342 341 342 341 342 342 342 340 339 337
289 287 291 295 297 297 295 295 298 296 295 299 300 301 303 303 303 303 303 306 315 335 339 339 337 336 337 339 338 339 343 343 344 345 345 345 343 343 343 341 341 342 341 342 341 340 341 338 335
289 294 294 296 297 296 295 297 296 297 300 302 301 302 301 301 301 301 302 303 301 304 310 334 338 337 336 337 337 337 338 339 341 342 343 342 341 341 342 342 340 339 341 342 341 341 341 339 336
293 294 297 298 297 296 297 295 296 298 302 301 300 300 300 300 299 300 302 301 312 318 328 337 341 337 337 336 337 336 337 339 339 339 342 342 341 340 341 341 340 338 338 339 340 341 339 339 337
296 295 295 297 297 297 296 295 294 299 300 300 301 300 300 300 300 298 300 307 312 316 319 323 325 334 339 337 337 336 338 338 337 337 339 341 341 339 339 340 338 338 337 338 338 339 339 338 337
297 292 294 295 297 295 296 293 295 299 299 298 299 300 300 301 301 299 300 310 314 315 317 317 317 317 319 322 324 326 333 337 337 337 339 339 340 339 337 338 338 338 339 337 337 337 337 336 336
292 291 287 294 296 297 293 288 296 299 299 296 297 298 299 299 300 298 309 310 310 312 311 312 314 312 312 313 315 318 319 321 326 330 333 336 339 340 336 335 336 338 335 336 336 337 336 336 334
288 283 285 289 296 294 291 290 295 298 297 296 295 295 297 297 304 307 308 308 307 307 306 307 307 307 307 308 309 311 312 313 317 319 325 327 329 332 330 329 335 334 334 334 335 335 335 334 333
284 284 282 285 292 294 291 291 295 295 293 294 293 294 294 302 305 306 305 305 304 304 304 304 304 304 304 304 305 306 305 307 311 314 314 319 320 323 328 326 326 328 332 331 332 333 334 333 332
288 286 285 287 292 290 290 290 293 292 292 292 292 294 301 302 303 303 302 302 302 302 301 301 300 300 301 301 300 302 300 302 304 309 308 313 310 312 315 321 323 329 328 328 332 333 331 330 327
288 286 285 289 293 291 289 289 291 291 293 294 294 294 301 300 299 300 299 298 298 298 298 298 298 297 298 298 298 298 298 302 302 302 303 306 305 309 310 312 317 321 323 329 330 332 330 328 328
288 286 287 287 290 290 288 287 288 293 295 297 299 299 302 299 296 296 296 295 294 293 294 295 294 294 295 295 296 296 297 297 298 296 297 300 301 303 305 308 310 312 317 319 323 329 327 326 327
284 291 290 290 286 282 287 281 289 290 292 294 294 293 294 294 294 294 294 293 294 293 293 292 293 293 293 293 292 291 291 290 293 294 295 296 298 300 303 305 306 308 310 313 317 325 328 325 321
289 294 292 291 285 282 284 280 283 292 290 290 291 292 292 293 294 293 292 292 292 292 291 290 291 290 291 290 290 289 288 290 291 292 292 294 296 297 299 301 302 303 306 309 313 316 322 329 325
295 291 289 286 283 279 284 282 280 287 291 290 291 292 293 293 293 293 293 294 292 291 290 290 289 289 288 288 287 287 286 286 287 289 290 292 294 295 296 298 298 299 301 303 307 312 315 325 328
290 286 281 277 276 276 284 280 282 291 292 291 290 290 292 294 292 291 290 290 290 289 288 288 288 287 287 286 286 286 286 286 287 288 289 290 292 294 295 295 296 297 299 300 301 303 306 310 324
288 286 278 274 275 276 283 278 283 293 293 293 293 293 294 293 293 291 290 289 288 288 287 286 286 286 287 287 287 287 288 288 289 289 289 290 291 293 295 295 297 298 300 301 301 301 303 308 312
286 283 288 281 281 277 279 283 289 292 291 292 292 293 293 293 291 290 289 288 287 287 287 286 285 286 286 287 287 287 287 287 288 289 290 290 292 293 294 295 296 297 298 300 301 300 301 305 309
288 290 280 280 275 274 277 278 278 288 289 291 292 292 292 293 290 288 287 286 286 285 286 286 286 286 286 287 287 286 287 287 288 289 288 289 290 291 292 293 293 294 296 298 300 301 302 303 306
283 282 283 284 280 275 274 277 288 289 291 291 292 290 289 286 286 285 285 285 285 284 283 284 285 285 285 286 287 286 287 287 287 286 287 287 288 289 290 291 292 292 293 296 298 300 301 302 305
285 283 283 278 277 279 276 277 290 292 292 294 290 287 285 284 283 282 283 283 283 282 283 284 284 284 285 285 285 286 286 287 286 286 286 287 287 288 288 289 290 291 293 295 297 298 302 305 306

GFSSGP_sfc_thetae_126.txt.gz
Theta_e
315 308 304 301 293 289 286 289 291 294 296 296 298 298 298 303 310 301 326 342 344 345 348 348 350 352 352 352 351 351 354 354 355 356 355 356 356 355 355 355 355 356 358 357 355 355 353 350 349
313 309 302 295 289 284 287 291 292 295 298 300 300 301 306 310 318 323 327 343 344 346 347 348 349 351 351 351 351 351 354 354 354 354 355 355 355 355 355 354 354 356 357 356 355 354 353 352 348
309 306 298 290 285 285 286 291 296 299 300 297 297 304 307 308 318 324 331 343 345 345 347 347 348 349 350 350 350 351 352 352 352 352 354 355 355 355 355 353 354 356 357 356 354 353 353 349 346
306 300 295 290 287 290 290 296 297 298 299 299 296 299 309 316 317 328 340 343 342 343 346 345 346 348 349 350 350 350 350 349 349 350 353 354 355 355 354 352 354 356 356 356 355 354 351 347 345
299 295 289 286 287 291 295 297 298 298 300 302 300 300 306 317 322 337 341 343 339 341 343 344 344 346 349 350 350 349 349 348 349 349 350 351 353 353 351 351 353 354 354 354 353 352 349 346 345
295 293 287 285 288 293 296 297 298 298 299 301 300 301 304 310 316 331 339 341 341 340 342 344 346 346 347 348 347 346 347 347 347 348 349 350 350 350 349 350 351 352 352 351 351 348 347 346 344
293 290 287 286 288 292 296 300 297 297 297 299 302 300 303 307 310 321 334 340 337 338 340 341 343 346 345 343 344 343 344 345 346 346 346 347 347 347 348 349 349 351 350 349 348 347 346 345 343
293 291 286 286 288 290 296 299 298 298 297 304 302 298 299 306 309 319 336 338 334 337 337 337 339 341 342 342 342 342 342 343 344 345 344 343 344 345 346 346 347 349 349 347 347 345 343 343 341
292 287 285 286 288 291 297 295 298 300 298 299 301 300 305 308 308 314 324 332 334 338 337 337 337 338 339 340 342 343 344 343 342 343 342 340 342 342 343 343 343 345 344 344 345 344 342 340 339
289 285 287 291 292 292 295 291 296 296 297 298 298 303 305 305 304 303 304 316 330 335 336 336 336 336 337 342 340 340 344 345 342 341 341 342 343 339 343 341 340 341 341 342 342 342 340 339 338
286 286 289 293 295 293 291 294 296 295 294 297 298 300 301 302 302 301 302 304 312 324 337 338 335 335 335 337 338 342 343 343 344 343 341 343 343 343 342 340 340 339 340 341 341 340 340 338 336
287 292 292 294 295 294 293 293 294 296 299 301 301 300 300 300 300 300 301 301 300 311 330 331 335 334 334 335 336 338 341 340 341 341 343 343 341 341 341 341 341 339 339 342 343 342 342 340 336
291 292 295 296 296 295 296 294 294 296 300 300 299 300 299 300 299 299 299 299 302 305 320 329 332 336 333 333 333 332 335 337 340 339 341 340 339 338 340 340 341 340 339 342 341 341 340 339 338
294 294 294 295 296 296 294 294 294 298 299 300 298 298 299 299 300 298 297 300 311 318 320 320 325 338 340 338 336 335 333 333 335 335 338 340 341 339 339 339 339 339 336 339 340 339 338 337 337
295 291 293 294 293 293 294 291 293 297 298 297 297 297 298 299 303 299 298 308 312 313 313 314 314 317 321 322 323 325 331 332 332 333 332 336 339 338 338 336 338 336 336 336 337 339 339 337 337
291 289 285 293 294 294 294 286 295 297 298 297 297 296 296 304 304 304 305 305 304 305 305 306 308 307 308 310 313 314 316 319 322 325 328 328 330 333 334 334 333 334 337 336 337 337 335 336 334
286 283 283 288 294 293 292 287 294 297 295 295 293 294 296 302 302 302 302 301 301 302 301 301 301 301 303 305 309 308 310 310 313 315 315 317 318 317 324 331 332 334 333 335 336 336 335 334 334
283 283 282 283 289 292 289 289 293 295 293 294 293 293 300 299 298 299 299 299 298 298 298 298 297 297 299 301 302 304 303 305 309 306 309 309 310 311 313 321 326 325 325 327 331 331 333 334 333
287 285 284 286 290 288 288 289 290 292 291 291 293 292 297 296 297 297 296 295 295 295 295 294 294 294 295 295 295 299 297 301 303 302 305 304 304 307 307 309 314 319 323 323 324 325 325 328 331
287 284 283 287 291 290 288 288 290 291 291 294 295 296 295 294 293 294 294 293 292 291 292 293 292 292 292 293 293 294 296 298 300 297 299 300 300 303 303 305 308 311 314 317 325 323 322 323 327
286 285 285 285 289 288 287 285 287 292 293 294 293 293 292 291 291 291 291 290 290 290 290 291 291 290 291 291 291 292 294 294 295 293 294 296 298 299 302 303 304 306 309 311 315 318 323 321 326
283 289 289 287 285 281 286 279 285 289 289 290 290 290 290 291 292 292 291 291 290 289 290 290 291 290 290 289 288 287 287 287 290 291 292 293 296 298 299 300 301 302 305 306 310 315 318 321 319
287 293 290 289 285 281 282 279 281 290 286 287 288 290 291 292 292 291 292 292 291 291 290 289 289 289 288 288 287 286 285 286 288 289 289 291 294 295 297 298 298 298 300 301 303 305 309 315 317
294 290 288 284 283 278 283 281 278 284 287 287 289 291 292 293 292 292 292 292 290 290 289 289 288 288 288 288 288 287 286 286 287 288 289 291 292 293 295 296 296 296 297 298 300 302 303 306 312
290 285 278 275 275 277 282 280 283 289 291 289 289 291 293 294 293 293 291 290 290 288 288 287 287 286 287 287 287 287 287 287 287 288 289 289 290 291 293 294 295 296 297 299 300 300 300 301 303
286 285 279 274 274 275 282 277 281 292 292 293 293 293 293 291 293 291 290 288 287 286 286 286 286 286 286 287 287 288 288 287 288 288 288 289 290 291 292 294 295 295 297 298 299 300 301 301 302
286 283 287 281 280 278 278 281 289 292 291 291 292 293 293 293 291 288 288 286 285 284 284 284 284 285 285 286 286 287 287 287 287 287 288 289 289 290 291 291 292 294 295 296 297 298 300 301 301
287 289 280 279 274 273 276 277 279 286 288 291 291 292 294 293 289 286 285 285 285 284 284 285 285 285 285 286 286 287 287 287 287 287 287 287 288 288 289 289 291 292 293 294 295 296 299 300 301
283 283 283 283 280 275 273 277 285 288 290 290 291 293 292 288 283 282 283 283 283 283 284 284 285 285 285 285 285 285 286 286 287 286 286 286 287 287 288 289 289 290 291 293 294 296 297 298 300
286 286 286 280 277 279 276 278 289 290 291 293 292 286 284 282 281 281 281 282 282 283 284 284 284 284 284 284 284 284 285 285 284 284 285 285 285 286 286 287 288 288 289 290 291 292 293 295 298

GFSSGP_sfc_thetae_129.txt.gz
Theta_e
320 313 312 309 303 301 296 298 300 302 302 305 304 306 311 313 315 310 335 347 347 349 352 353 350 352 352 352 351 352 354 356 357 356 355 355 355 355 355 355 355 356 358 358 356 355 353 349 349
316 313 310 304 301 297 297 299 300 303 305 306 304 307 314 314 323 329 334 347 348 350 352 354 350 351 351 351 351 352 354 355 356 356 356 355 355 355 355 354 354 356 358 357 355 355 353 351 347
314 309 308 301 297 297 296 299 302 304 304 304 304 311 313 316 324 330 339 348 349 351 352 352 349 349 351 350 351 351 352 352 354 355 356 356 356 356 355 354 354 356 357 355 356 355 355 349 346
311 309 304 300 296 298 298 302 303 303 307 308 305 307 316 322 322 336 346 348 348 350 352 349 346 348 350 350 350 351 351 350 350 352 355 356 356 356 355 352 354 356 357 357 356 355 352 347 345
307 305 300 296 295 298 301 303 303 303 303 305 307 306 312 323 323 342 346 347 346 348 351 352 344 347 349 350 350 350 349 348 349 350 352 354 355 354 353 351 353 354 355 355 354 352 348 346 345
305 303 298 296 295 299 302 304 302 303 304 305 306 307 310 317 320 329 344 347 348 347 350 351 348 347 347 348 348 347 347 347 347 348 349 352 352 351 351 351 351 352 352 351 351 349 347 346 345
302 301 297 295 295 298 301 305 301 302 303 304 306 304 311 314 317 323 342 349 349 348 349 350 352 351 345 343 343 343 345 346 346 346 346 348 348 348 349 350 350 350 350 349 349 347 346 346 344
301 301 294 295 295 297 301 302 303 303 302 308 308 303 304 312 317 323 340 347 348 348 349 349 350 352 353 353 342 342 343 343 344 345 344 344 345 346 346 346 348 349 349 349 348 346 345 344 342
300 298 295 295 294 297 300 300 303 306 303 304 306 307 310 312 313 315 324 335 346 347 348 349 349 350 351 352 350 345 344 343 342 345 343 341 350 351 350 346 345 346 345 345 345 344 342 340 340
299 296 296 297 298 297 300 301 301 302 303 303 305 309 310 310 311 311 312 313 324 340 347 349 349 348 348 347 350 351 351 351 351 351 351 351 351 350 348 345 341 342 342 340 341 341 339 340 346
295 296 295 297 299 300 299 300 302 301 300 304 303 305 307 308 309 309 310 311 312 321 342 347 348 348 347 347 348 348 346 346 348 348 350 350 348 347 348 348 347 348 344 350 347 347 349 348 347
295 297 297 298 299 299 299 301 300 301 303 305 305 305 305 306 306 306 306 308 310 311 324 341 345 346 347 347 347 345 344 345 345 347 348 348 349 346 344 344 345 346 347 347 347 348 348 347 348
297 297 299 300 300 300 300 299 300 300 304 305 305 304 303 304 308 308 306 307 310 318 327 329 338 340 343 345 345 345 342 342 343 344 344 346 346 346 345 345 344 344 345 346 346 344 344 344 344
298 298 299 299 301 300 299 299 298 301 303 303 304 303 304 309 309 311 312 313 315 314 313 317 317 322 332 338 340 340 341 342 343 343 342 343 344 345 345 343 343 342 343 342 346 346 343 343 344
299 296 298 300 299 298 299 296 297 302 303 301 302 301 307 306 307 306 307 307 308 308 308 307 310 311 314 319 323 326 330 332 335 334 334 339 343 345 345 343 342 344 343 340 341 342 344 343 341
296 295 292 297 297 297 298 291 299 303 301 300 301 299 304 303 303 303 303 303 303 303 303 303 303 304 306 310 316 320 322 324 322 324 327 328 328 329 337 338 337 339 339 339 338 339 336 338 339
292 290 289 292 297 296 295 292 299 302 300 300 301 301 301 300 299 299 299 299 299 299 300 300 301 301 303 306 311 313 315 316 314 316 317 315 316 318 323 331 337 337 335 336 333 328 334 336 336
288 288 289 289 294 295 293 293 297 300 299 298 298 301 299 297 296 297 297 297 297 298 298 298 299 298 300 303 306 309 307 310 308 308 310 308 309 311 313 318 320 326 331 333 331 327 330 337 339
291 289 288 291 294 291 292 293 295 299 298 298 300 299 296 295 297 296 297 297 297 296 297 296 296 297 297 297 299 302 301 306 307 304 305 305 305 307 309 311 314 318 321 325 329 332 330 328 333
292 289 289 291 293 293 292 292 296 296 295 296 298 296 295 295 295 295 295 295 295 295 295 295 295 295 295 295 296 298 299 303 305 301 301 302 302 304 306 307 309 311 313 316 321 325 325 328 332
290 288 288 288 292 294 292 291 291 293 295 295 295 295 295 294 294 294 295 294 295 294 294 294 294 294 294 294 295 296 298 298 299 297 298 298 300 302 303 304 306 307 309 310 314 317 319 320 328
286 292 291 289 289 285 291 283 289 292 291 292 292 293 294 294 294 295 295 293 292 292 292 292 293 293 293 294 293 292 291 291 293 294 296 297 299 300 301 302 303 304 305 306 307 310 313 317 319
289 293 292 291 289 287 287 285 287 291 289 290 291 292 294 294 295 295 295 293 292 292 291 291 291 291 291 293 293 292 292 292 293 293 294 296 297 298 299 300 299 300 302 303 304 306 308 311 313
295 293 291 288 288 282 287 286 285 289 292 290 292 293 295 295 295 296 296 295 293 293 292 291 290 290 290 290 291 291 290 290 290 291 291 292 294 294 296 296 296 297 297 298 300 301 302 304 306
293 289 283 281 281 280 286 285 288 292 293 294 293 294 296 296 296 295 294 292 291 290 290 290 290 289 289 289 290 291 290 290 289 289 288 289 290 292 293 294 294 295 296 297 299 300 300 301 301
290 289 283 276 278 281 285 282 287 294 295 295 295 296 296 296 295 293 291 290 289 289 289 289 288 288 289 289 289 290 290 289 289 289 288 289 289 290 292 292 293 294 295 296 297 297 299 301 301
289 286 291 285 283 281 285 287 291 294 293 293 294 295 295 295 293 291 289 289 288 288 288 287 287 288 288 287 287 288 288 288 288 288 289 288 289 290 290 290 290 291 293 293 294 295 296 299 301
292 293 285 285 277 275 281 282 285 289 291 292 293 294 296 294 290 288 287 287 287 287 288 288 287 286 286 286 286 286 287 287 287 287 287 287 288 288 288 288 289 290 291 292 293 293 295 296 299
288 287 287 288 284 279 277 282 291 292 294 293 294 296 296 291 286 286 286 286 286 287 287 286 286 285 285 286 285 285 285 286 286 286 286 285 286 287 287 287 287 288 289 290 290 291 292 295 296
289 288 289 284 281 283 282 282 294 295 295 296 296 295 292 287 284 285 285 286 285 285 286 285 285 285 285 285 285 284 284 284 284 284 284 285 284 286 286 286 287 287 287 289 288 289 290 291 292

GFSSGP_sfc_thetae_135.txt.gz
Theta_e
326 326 325 321 309 310 307 306 310 309 309 314 315 312 316 322 322 318 345 350 352 351 356 353 350 352 353 354 355 356 357 357 357 356 356 356 356 355 355 356 356 358 358 356 354 353 353 351 351
324 322 322 316 306 305 306 309 307 309 312 313 313 313 317 320 332 337 340 347 352 353 356 355 350 351 352 352 354 356 358 358 357 356 356 356 356 355 355 355 355 357 358 358 355 354 351 351 350
322 321 315 312 308 304 305 309 309 310 312 311 311 317 319 323 335 339 343 345 351 352 355 356 350 350 351 352 353 354 357 357 357 356 356 356 356 356 355 354 354 356 359 359 356 355 355 349 347
320 320 316 307 306 308 309 310 311 311 312 313 313 314 326 332 335 340 342 343 347 352 357 351 349 350 350 351 351 352 353 354 354 355 356 356 356 356 355 353 354 356 359 358 357 356 354 348 345
319 317 308 307 306 308 310 311 312 310 311 311 314 312 320 326 332 335 338 342 345 350 357 357 349 350 351 351 351 351 351 351 353 354 355 355 355 355 354 352 353 355 357 357 356 354 352 349 346
313 315 306 305 307 308 311 312 311 310 311 312 312 314 316 322 324 328 336 339 344 347 354 358 350 350 350 351 350 350 349 349 350 352 353 355 355 354 353 352 352 353 354 354 353 352 350 349 346
312 311 307 307 306 307 310 313 310 310 310 310 313 310 315 318 321 323 330 337 342 347 351 356 360 353 348 348 348 348 348 348 348 348 350 352 352 350 351 351 352 352 350 352 352 350 349 347 345
314 312 307 308 306 306 310 310 311 310 310 315 315 310 312 317 321 323 324 331 334 338 346 351 358 361 360 357 345 346 346 346 346 347 347 348 350 350 349 349 349 349 350 349 350 349 348 346 345
314 306 304 307 306 308 310 309 313 314 312 312 313 314 316 318 320 320 321 322 324 328 338 345 353 356 361 361 356 346 346 346 346 347 346 345 350 351 352 349 347 348 345 346 348 347 345 344 344
308 305 305 310 309 308 309 310 311 310 310 310 312 315 316 317 318 318 317 317 320 322 327 337 348 352 356 354 358 359 357 355 354 353 353 352 351 349 348 346 344 345 344 344 345 344 343 343 346
307 303 307 307 308 309 308 307 310 308 307 310 309 311 313 317 318 318 319 322 323 324 332 336 340 350 352 349 349 349 349 353 356 356 357 355 356 353 350 353 353 350 345 348 345 347 349 347 345
303 306 306 306 307 307 306 309 307 308 309 311 311 311 315 315 316 317 318 320 321 323 325 327 330 337 343 350 352 354 352 351 350 352 353 354 355 354 353 351 352 353 352 346 347 347 348 347 347
304 305 306 307 307 308 308 306 307 308 310 311 311 313 313 314 315 318 319 319 319 318 319 322 325 330 336 338 338 345 349 349 347 347 346 347 349 350 352 352 350 350 352 350 349 349 348 347 348
306 306 306 307 307 308 306 306 307 309 311 310 310 311 313 313 314 315 316 315 317 316 316 318 320 324 328 332 332 333 332 333 334 332 328 328 328 328 337 348 349 351 351 352 349 348 346 346 347
306 302 305 306 307 306 306 302 304 309 310 308 309 311 311 312 312 312 313 313 314 314 314 314 316 319 323 327 329 329 328 326 326 324 324 324 322 324 326 333 343 345 347 347 345 340 345 348 347
302 303 299 305 305 305 304 298 306 309 308 307 308 310 310 310 310 311 311 312 313 312 312 313 312 314 317 320 323 323 325 323 322 322 322 322 323 324 325 330 334 333 331 340 339 335 332 334 338
303 297 299 301 305 303 302 299 305 309 307 306 307 309 309 308 309 310 310 311 311 310 310 310 311 311 313 315 321 320 321 321 320 320 319 318 320 320 321 325 328 330 331 332 338 338 339 338 339
297 298 300 298 303 302 300 300 304 306 305 305 307 308 308 307 306 308 309 310 310 310 310 309 309 309 311 311 313 315 314 317 318 315 314 315 314 316 317 319 322 324 325 328 329 331 333 338 337
300 298 296 300 303 301 300 300 302 305 306 305 307 308 307 305 306 307 308 309 309 309 308 307 307 308 308 308 307 308 308 312 312 312 312 312 312 313 314 315 316 318 319 320 323 325 326 326 334
299 296 297 300 302 299 298 298 302 304 304 306 306 308 307 305 305 306 307 308 307 306 306 306 306 306 306 306 307 308 308 309 310 309 310 310 310 311 310 312 312 314 314 316 318 320 320 322 326
298 296 296 295 299 300 298 296 299 303 304 305 306 307 308 307 306 306 306 305 306 305 306 306 306 305 305 306 307 307 308 308 307 306 307 307 308 309 309 309 309 309 310 311 313 315 316 315 319
293 299 297 295 294 290 299 289 297 301 301 303 304 306 306 306 307 306 306 306 306 306 306 305 304 303 303 305 304 304 303 302 303 304 305 305 307 306 307 307 306 305 307 307 308 310 311 312 311
295 298 297 295 294 294 294 291 295 300 298 300 303 305 306 307 306 306 306 306 305 304 304 304 304 303 303 303 302 302 301 301 302 302 302 303 303 304 305 305 303 302 302 303 303 304 305 306 306
299 297 297 297 295 287 292 292 292 297 298 300 303 305 306 307 306 307 306 305 303 303 303 303 302 301 302 301 300 300 298 298 298 298 298 299 300 300 301 299 298 297 298 299 299 300 300 300 301
298 294 287 286 287 286 295 291 293 299 301 301 302 304 306 307 307 306 305 303 301 301 302 301 300 299 300 299 299 298 297 297 296 295 294 294 295 295 295 295 294 295 295 296 297 296 297 298 298
296 294 287 280 283 286 293 288 294 300 304 304 303 305 306 306 306 305 304 302 300 300 300 300 299 298 298 297 297 297 296 295 294 293 292 292 291 292 293 292 293 293 293 294 294 295 295 296 298
293 291 296 288 290 286 289 293 298 302 301 303 303 304 305 306 304 304 302 301 299 299 299 299 298 297 297 296 296 296 295 293 292 292 292 291 291 291 291 291 291 291 292 292 293 293 293 294 295
296 297 288 290 280 279 286 288 290 296 298 301 301 303 304 306 302 302 301 299 299 299 299 298 297 296 296 297 296 295 294 293 292 291 289 289 289 290 289 289 290 290 291 291 291 291 292 292 293
292 292 292 292 288 282 281 286 297 296 299 300 302 303 304 305 301 301 300 299 298 298 297 296 296 295 295 295 295 294 293 292 291 290 289 288 289 289 289 289 289 289 289 289 289 289 289 289 290
296 293 293 286 284 287 285 287 299 299 300 301 301 304 305 306 304 301 299 297 297 296 296 296 295 294 293 294 294 292 292 291 290 288 289 289 288 289 288 288 288 288 288 287 287 287 287 287 286